カタログに戻る

DMSP 5D-2 F13 DEB

運用中SSO
NORAD 40396·DEBRIS·🇺🇸 United States

打ち上げ Mar 24, 1995 から Vandenberg Space Force Base

Loading…

次のパス (今後24時間)

TLE

最新Source: Space-Track

元期: Sep 14, 2026, 12:04 UTC

1 40396U 95015H   26257.50337718  .00000071  00000-0  54069-4 0  9994
2 40396  98.7346 270.0587 0016045 129.3658 230.8942 14.19625837598264

AllMySatでDMSP 5D-2 F13 DEBをリアルタイム追跡

Download on the App Store